AirNav   Pilot Hours Calculator
 
 455 users online  

60KS Alley Field Airport
Douglass, Kansas, USA

GOING TO DOUGLASS?


FAA INFORMATION EFFECTIVE 26 JANUARY 2023

Location

FAA Identifier: 60KS
Lat/Long: 37-30-50.3850N 096-59-58.8100W
37-30.839750N 096-59.980167W
37.5139958,-96.9996694
(estimated)
Elevation: 1260 ft. / 384 m (estimated)
Variation: 07E (1985)
From city: 1 mile E of DOUGLASS, KS
Time zone: UTC -6 (UTC -5 during Daylight Saving Time)
Zip code: 67039

Airport Operations

Airport use: Private use. Permission required prior to landing
Activation date: 02/1987
Control tower: no
ARTCC: KANSAS CITY CENTER
FSS: WICHITA FLIGHT SERVICE STATION
Attendance: UNATNDD
Wind indicator: yes
Segmented circle: no

Airport Communications

WX AWOS-3P at 3AU (10 nm N): 124.175 (316-733-6696)
WX AWOS-3PT at BEC (15 nm NW): 119.45 (316-515-7116)
WX AWOS-2 at 1K1 (17 nm N): 118.3 (316-530-6004)
WX ASOS at AAO (18 nm NW): 134.025 (316-636-2541)
WX AWOS-3P at EQA (18 nm NE): 120.875 (316-322-8095)

Nearby radio navigation aids

VOR radial/distance  VOR name  Freq  Var
ICTr110/31.0WICHITA VORTAC113.8007E

Airport Services

Runway Information

Runway 17/35

Dimensions: 1200 x 75 ft. / 366 x 23 m
Surface: turf
RUNWAY 17  RUNWAY 35
Latitude: 37-30.938500N37-30.741000N
Longitude: 096-59.987500W096-59.972833W
Elevation: 1255.0 ft.1231.0 ft.
Traffic pattern: rightleft

Airport Ownership and Management from official FAA records

Ownership: Privately-owned
Owner: LAWRENCE ALLEY
1220 E. 8TH
DOUGLASS, KS 67039
Phone 316-747-2510
Manager: LAWRENCE ALLEY
1220 E. 8TH
DOUGLASS, KS 67039
Phone 316-747-2510

Airport Operational Statistics

Aircraft based on the field: 2
Single engine airplanes: 2
    

Additional Remarks

FOR CD CTC WICHITA APCH AT 316-350-1520.

Instrument Procedures

There are no published instrument procedures at 60KS.

Some nearby airports with instrument procedures:

3AU - Augusta Municipal Airport (10 nm N)
KIAB - Mc Connell Air Force Base (14 nm NW)
KCEA - Cessna Aircraft Field Airport (14 nm NW)
KBEC - Beech Factory Airport (15 nm NW)
1K1 - Lloyd Stearman Field Airport (17 nm N)
KAAO - Colonel James Jabara Airport (18 nm NW)
KEQA - El Dorado/Capt Jack Thomas Memorial Airport (18 nm NE)
 
Loc | Ops | Rwys | IFR | FBO | Links
Com | Nav | Svcs | Stats | Notes
Area around 60KS (Alley Field Airport)
 
Road maps at: MapQuest Bing Google
 
Aerial photo
No photo
 
Sectional chart

 
Airport distance calculator
Flying to Alley Field Airport? Find the distance to fly.

From to 60KS

Sunrise and sunset
Times for 07-Feb-2023
 Local
(UTC-6)
 Zulu
(UTC)
Morning civil twilight07:0013:00
Sunrise07:2713:27
Sunset17:5723:57
Evening civil twilight18:2500:25

Current date and time
Zulu (UTC)  07-Feb-2023 08:06:21
Local (UTC-6)  07-Feb-2023 02:06:21
 
METAR
K3AU 
10nm N 
070755Z AUTO 33012G17KT 10SM CLR 03/M01 A3003 RMK AO2
KIAB 
14nm NW 
070755Z AUTO 34015KT 10SM CLR 04/M00 A3000 RMK AO2 SLP162 T00381004 $
KBEC 
15nm NW 
070755Z AUTO 32008KT 10SM CLR 04/00 A3003 RMK AO2 T00401004
KAAO 
18nm NW 
070754Z AUTO 31013KT 10SM CLR 03/M01 A3004 RMK AO2 SLP172 T00331006
KEQA 
18nm NE 
070755Z AUTO 33011KT 10SM CLR 04/00 A3002 RMK AO2
TAF
KIAB 
14nm NW 
070200Z 0702/0808 33010G15KT 9999 FEW150 QNH2987INS BECMG 0715/0716 01010G15KT 9999 BKN100 QNH3021INS BECMG 0723/0724 01009KT 9999 BKN060 QNH3020INS TX09/0702Z TN01/0713Z
NOTAMs
Click for the latest NOTAMs
NOTAMs are issued by the DoD/FAA and will open in a separate window not controlled by AirNav.

 

 
 

Would you like to see your business listed on this page?

 If your business provides an interesting product or service to pilots, flight crews, aircraft, or users of the Alley Field Airport, you should consider listing it here.  To start the listing process, click on the button below
 
Add a business
 

Other Pages about Alley Field Airport

Update a link
 
Copyright © AirNav, LLC. All rights reserved. Privacy Policy  Contact